Showing default

COSMOS 86, 1584

Orbit data source: Space-Track

COSMOS 86, 1584 is a payload satellite owned by OKB-10 (CIS) in LEO that was launched on Sat, 18 Sep 1965 UTC via a KOSMOS 65S3 launch vehicle from the Tyuratam Missile And Space Complex (TTMTR). Payload-class satellites include a variety of spacecraft equipped with specific instruments for various scientific and technological missions. These include communications satellites like Starlink; space stations such as the ISS; scientific satellites like the Hubble; Earth observation satellites from companies like Planet Labs, Umbra, and HawkEye 360; GPS; miniature CubeSats for education and research; and military/defense satellites.

Loading next visibility...
Identifier
1584, 1965-073A
Orbit
LEO
Last TLE update
21 hours ago
Origin
Manufacturer
OKB-10
Mission
Defense Communications
Bus & Motor
STRELA-1 11F610, Unknown motor
Mass
50 kg wet, 50 kg dry
Launch date (UTC)
1965-09-18 (60 years ago)
Launch vehicle
KOSMOS 65S3
Launch site
Tyuratam Missile And Space Complex (TTMTR)
Object type
Payload
Rocket body
Debris
Shape & HBR
Poly, 0.8 m
Radar Cross Section
0.731 m², Medium (>0.1 m² and < 1m²)

Expand to show TLE details & history

TLE from 21 hours ago
0 COSMOS 86
1 01584U 65073A   25128.37582080 -.00000068  00000-0  17365-3 0  9990
2 01584  56.0551 157.3323 0215463  95.4320 357.6678 12.51910628726754
Epoch: 2025-05-08T09:01Z
Definitive object data (Epoch: 2025-05-08T09:01:10.917Z)
Latitude
56.07258°
Longitude
-109.04895°
Altitude
1,295.471 km
Speed
7.292 km/s
True Right ascension
16h 50m 46s
True Declination
55° 55' 28"
Sunlit
Object was in daylight at TLE epoch
Visualization TLE readout
Latitude
55.99177°
Longitude
-109.8171°
Altitude
1,295.489 km
Speed
7.292 km/s
Apparent Right ascension
22h 14m 03s
Apparent Declination
36° 32' 54"
Sunlit
Object is in daylight
Visualization observer readout
Local Sidereal Time
14:15:08
Azimuth
44.401° NE
Elevation
4.391°
Doppler factor
1
Orbital elements
Apogee altitude
1,625.141 km
Perigee altitude
1,287.533 km
Semi-major axis
7,834.474 km
Eccentricity
0.0215463
Inclination
56.0551°
RAAN
157.3323°
Arg. of periapsis
95.432°
True anomaly
357.56455°
Mean anomaly
357.6678°
Eccentric anomaly
357.61646°
Mean motion
3.12989 °/min
BSTAR
0.00017365
Orbital period
115.02 mins
Loading maneuver chart data...
Loading SW <> Apogee altitude chart data...
Loading historical data...
Loading historical data...
Loading historical data...
Loading historical data...
Loading historical data...
Loading historical data...
Loading historical data...

COSMOS 86 Visibility forecast

Observer location: undefined°, undefined°

Span
Click to sort rows by Start time (UTC) header in descending order
Start Az.
Max El. time (UTC)
Max El. Az.
Max El.
End time (UTC)
End Az.
12 mins2025-05-09 07:53:21.708Z305.462° NW2025-05-09 07:59:21.708Z355.904° N22.771°2025-05-09 08:05:21.708Z48.249° ENE
12 mins2025-05-09 09:56:21.708Z327.311° NNW2025-05-09 10:02:21.708Z32.018° NE30.381°2025-05-09 10:08:21.708Z87.09° E
14 mins2025-05-09 11:56:21.708Z312.154° NW2025-05-09 12:02:21.708Z260.538° W44.452°2025-05-09 12:10:21.708Z142.534° SSE
8 mins2025-05-09 13:58:21.708Z272.542° WNW2025-05-09 14:01:21.708Z247.657° W17.059°2025-05-09 14:06:21.708Z208.563° SW
13 mins2025-05-10 02:48:21.708Z182.659° SSW2025-05-10 02:55:21.708Z116.808° SE31.277°2025-05-10 03:01:21.708Z62.153° ENE
14 mins2025-05-10 04:48:21.708Z244.212° WSW2025-05-10 04:54:21.708Z307.674° NW41.366°2025-05-10 05:02:21.708Z41.432° NE
|